Location: Chena
(64.8152°N, 147.9227°W)
Time: 12:15:36
(UTC+00:00)

Vanguard 1 Rocket - All Passes

Search period start: 07 March 2021 00:00
Search period end: 17 March 2021 00:00
Orbit: 654 x 4223 km, 34.3° (Epoch: 07 March)

Date Brightness Start Highest point End Pass type
(mag) Time Alt. Az. Time Alt. Az. Time Alt. Az.
07 Mar - 07:48:46 10° SE 07:53:39 11° SE 07:58:46 10° ESE visible
07 Mar - 10:01:52 10° SSW 10:17:23 23° SSE 10:34:04 10° ESE visible
07 Mar - 12:24:56 10° SW 12:43:03 27° S 13:00:36 10° SE visible
07 Mar - 14:52:43 10° WSW 15:08:25 21° SSW 15:22:23 10° S visible
08 Mar - 08:52:55 10° S 09:05:39 19° SE 09:19:53 10° ESE visible
08 Mar - 11:13:25 10° SW 11:30:42 27° S 11:48:44 10° SE visible
08 Mar - 13:39:06 10° WSW 13:56:30 25° SSW 14:12:46 10° SSE visible
08 Mar - 16:10:53 10° WSW 16:20:45 14° SW 16:29:49 10° SSW daylight
09 Mar - 07:46:23 10° SSE 07:54:29 13° SE 08:03:23 10° ESE visible
09 Mar - 10:02:53 10° SSW 10:18:30 24° SSE 10:35:55 10° ESE visible
09 Mar - 12:26:32 10° SW 12:44:15 27° S 13:02:00 10° SE visible
09 Mar - 14:54:54 10° WSW 15:09:26 19° SW 15:22:53 10° S visible
10 Mar - 08:53:29 10° S 09:06:41 20° SSE 09:21:59 10° ESE visible
10 Mar - 11:14:55 10° SW 11:31:53 27° S 11:50:14 10° SE visible
10 Mar - 13:41:01 10° WSW 13:57:36 23° SSW 14:13:40 10° SSE visible
10 Mar - 16:15:12 10° WSW 16:21:34 12° SW 16:27:41 10° SW daylight
11 Mar - 07:45:52 10° SSE 07:55:24 15° SE 08:06:24 10° ESE visible
11 Mar - 10:04:13 10° SSW 10:19:40 25° SSE 10:37:31 10° ESE visible
11 Mar - 12:28:21 10° WSW 12:45:26 26° SSW 13:03:07 10° SSE visible
11 Mar - 14:57:30 10° WSW 15:10:23 17° SW 15:22:44 10° S visible
12 Mar - 08:54:32 10° SSW 09:07:48 22° SSE 09:23:47 10° ESE visible
12 Mar - 11:16:39 10° SW 11:33:07 27° S 11:51:30 10° SE visible
12 Mar - 13:43:13 10° WSW 13:58:41 21° SSW 14:14:10 10° S visible
13 Mar - 07:46:13 10° S 07:56:26 17° SE 08:08:43 10° ESE visible
13 Mar - 10:05:48 10° SW 10:20:53 26° SSE 10:38:54 10° SE visible
13 Mar - 12:30:24 10° WSW 12:46:36 24° SSW 13:03:57 10° SSE visible
13 Mar - 15:00:46 10° WSW 15:11:18 14° SW 15:21:41 10° SSW visible
14 Mar - 06:41:25 10° SE 06:45:40 11° SE 06:50:18 10° ESE visible
14 Mar - 08:55:54 10° SSW 09:09:00 23° SSE 09:25:19 10° ESE visible
14 Mar - 11:18:36 10° SW 11:34:21 26° S 11:52:30 10° SE visible
14 Mar - 13:45:46 10° WSW 13:59:44 19° SSW 14:14:08 10° S visible
15 Mar - 07:47:09 10° S 07:57:36 18° SE 08:10:37 10° ESE visible
15 Mar - 10:07:39 10° SW 10:22:11 25° S 10:40:03 10° SE visible
15 Mar - 12:32:41 10° WSW 12:47:47 23° SSW 13:04:23 10° SSE visible
15 Mar - 15:05:31 10° WSW 15:12:10 12° SW 15:18:51 10° SW visible
16 Mar - 06:40:38 10° SSE 06:46:45 13° SE 06:53:50 10° ESE visible
16 Mar - 08:57:34 10° SSW 09:10:18 23° SSE 09:26:38 10° ESE visible
16 Mar - 11:20:45 10° SW 11:35:38 25° S 11:53:14 10° SSE visible
16 Mar - 13:48:47 10° WSW 14:00:47 16° SW 14:13:23 10° S visible
